OBJECT-D, 65491

Orbit data source: Space-Track

OBJECT-D, 65491 is a Chinese satellite in SSO that was launched on Fri, 05 Sep 2025 UTC via a GUSHENXING 1 launch vehicle from the Jiuquan Satellite Launch Center, China (JSC). Unknown objects in Earth's orbit typically refer to objects detected orbiting the Earth but have not yet been identified or cataloged. These objects could be anything from previously untracked satellites, spent rocket stages, debris from satellite collisions, or even natural meteoroids temporarily captured by Earth's gravity.

Loading next visibility...
Identifier
65491, 2025-197D
Orbit
SSO
Country
Flag of CNCN / PRC
Related business
None
Manufacturer
Unknown
Mission
Spacecraft
Bus & Motor
Unknown
Mass
Unknown
Launch date (UTC)
2025-09-05 (2 weeks ago)
Launch vehicle
GUSHENXING 1
Launch site
Jiuquan Satellite Launch Center, China (JSC)
Object type
Unknown
Shape & HBR
Unknown
Radar Cross Section
Medium (>0.1 m² and <1 m²)

Expand to show TLE details & history
Last TLE update: 1 week ago

TLE from 1 week ago
0 OBJECT-D
1 65491U 25197D   25251.15999517  .00006845  00000-0  31070-3 0  9997
2 65491  97.4117  76.9332 0013873 282.8608  77.1078 15.21031443   398
Epoch: 2025-09-08T03:50Z
TLE epoch observation values (Epoch: 2025-09-08T03:50:23.582Z)
Latitude
Longitude
31.86583°
Altitude
503.702 km
Speed
7.614 km/s
True Right ascension
05h 07m 43s
True Declination
0° 00' 00"
Sunlit
Object was in daylight at epoch
Visualization orbit readout
Latitude
Unknown
Longitude
Unknown
Altitude
Unknown
Speed
Unknown
Apparent Right ascension
Unknown
Apparent Declination
Unknown
Sunlit
N/A
Visualization observer readout
Local Sidereal Time
00:40:26
Azimuth
Unknown
Elevation
Unknown
Doppler factor
Unknown
Orbital elements
Apogee altitude
509.234 km
Perigee altitude
490.151 km
Semi-major axis
6,877.83 km
Eccentricity
0.00139
Inclination
97.4117°
RAAN
76.9332°
Arg. of periapsis
282.8608°
True anomaly
77.26283°
Mean anomaly
77.1078°
Eccentric anomaly
77.18531°
Mean motion
3.8051 °/min
Orbital period
94.61 mins
BSTAR
0.0003107
Loading maneuver chart data...
Computing Atmospheric mass density...
Loading historical data...
Loading historical data...
Loading historical data...
Loading historical data...
Loading historical data...
Loading historical data...
Loading historical data...
Other satellites on launch #197 in the year 2025 (2025-09-05 UTC)

Documentation

Showing up to 5 results
|